Wind_Speed
15 16 16 18 22 20 17 14 14 16 16 14 12 13 12 13 14 11 7 5 8 13 18 21 16 14 18 22 23 22 24 22 20 19 19 21 21 18 21 27 30 32 34
17 14 13 13 12 11 12 12 11 10 11 14 15 13 13 10 7 3 6 9 13 17 15 14 16 19 22 22 20 21 20 19 17 18 19 21 18 19 24 28 32 33 37
25 23 19 16 19 20 16 10 9 8 10 11 10 7 3 3 5 7 11 13 13 15 17 20 20 21 21 22 22 20 18 17 17 18 19 19 19 22 25 28 33 34 40
30 30 28 22 25 21 19 16 11 7 7 4 5 2 2 4 7 9 11 13 15 16 18 20 22 24 26 23 21 21 21 20 20 20 21 21 22 25 27 30 33 34 43
38 37 35 31 28 21 22 15 8 5 8 8 7 8 9 10 10 13 16 19 18 19 19 20 25 29 36 37 38 33 32 30 27 24 24 23 26 24 28 31 31 33 42
43 39 40 39 34 33 36 39 30 19 13 12 18 17 17 24 23 24 26 25 23 22 23 29 36 28 36 40 37 34 36 36 32 25 25 26 26 24 26 29 29 30 35
47 44 45 43 40 45 44 49 55 57 53 44 38 35 33 35 35 32 39 37 30 27 24 29 40 35 37 43 42 36 34 31 31 25 25 27 28 28 25 25 26 27 30
49 51 46 40 42 40 38 47 49 48 48 45 44 42 40 33 30 32 41 44 43 36 28 24 35 37 37 32 35 33 34 34 31 25 22 24 27 29 31 27 24 25 25
43 47 49 49 42 40 39 33 33 34 33 34 32 31 30 29 26 29 26 28 29 31 26 23 28 33 41 37 36 36 36 34 30 27 21 23 25 27 30 29 28 23 24
47 47 47 48 46 42 34 34 35 30 26 24 23 24 25 23 18 28 27 23 19 17 13 16 31 35 34 37 40 43 40 35 32 26 23 21 22 24 27 29 28 29 28
41 42 43 44 42 40 38 34 30 27 25 23 20 20 19 20 18 14 17 17 19 24 25 17 14 32 33 30 38 43 45 44 39 32 24 24 24 23 24 25 28 27 27
35 36 37 40 41 40 38 36 35 27 25 23 22 21 21 21 22 20 24 25 23 16 26 16 13 19 28 26 32 38 40 41 46 44 37 29 27 27 26 25 25 25 24
27 27 29 36 37 39 38 36 35 32 25 24 17 15 15 17 17 19 21 18 23 16 17 28 21 18 20 24 28 30 33 37 41 42 41 42 41 37 31 27 25 24 23
18 19 21 27 31 32 38 38 37 32 31 28 26 26 23 20 19 17 17 18 22 24 23 23 22 22 21 25 25 21 27 34 36 32 31 37 39 39 38 41 39 37 33
12 14 16 16 21 26 29 33 32 36 36 33 30 27 23 23 24 24 23 23 23 20 19 19 18 22 25 26 26 23 25 28 29 25 23 31 34 36 37 39 36 35 35
7 14 9 11 15 18 20 22 26 28 32 32 33 32 29 24 20 20 19 21 20 15 17 16 16 19 19 25 25 23 24 17 18 22 23 22 25 28 30 29 32 31 30
4 7 7 4 4 9 11 12 14 19 23 25 26 28 29 29 28 25 20 15 14 16 19 18 17 17 19 24 28 21 19 17 19 19 20 15 19 21 23 25 24 22 23
7 7 5 4 2 3 6 5 7 8 12 16 15 18 21 25 24 22 22 23 23 24 21 18 16 18 20 23 24 22 18 16 17 19 19 19 14 12 12 16 18 18 22
9 13 10 8 6 2 3 3 8 4 6 9 12 13 11 13 16 17 20 20 18 18 17 15 21 22 20 21 22 22 17 18 18 17 18 17 15 10 7 8 11 11 12
13 14 16 14 14 10 10 9 8 11 10 6 8 11 13 12 14 11 13 15 20 21 21 20 16 19 18 18 17 18 20 21 22 19 19 17 16 15 13 12 6 3 5
16 16 21 20 19 19 18 16 14 16 15 16 11 12 13 14 16 14 15 14 16 18 19 20 20 23 23 23 23 24 24 22 20 20 21 19 18 20 20 19 17 15 15
23 30 31 28 22 23 26 27 26 24 22 18 17 16 21 24 23 23 20 19 21 21 21 22 22 22 24 23 24 25 27 28 27 25 24 20 20 22 19 18 20 22 20
38 41 36 33 29 29 32 33 32 28 28 26 27 22 26 29 29 28 29 32 32 28 26 27 28 29 29 28 26 25 25 30 31 31 29 27 25 24 21 24 22 21 19
53 51 45 40 38 36 36 36 37 36 32 27 30 32 35 34 34 33 36 39 39 38 38 35 35 32 33 30 32 31 32 31 32 33 33 33 32 31 27 26 22 21 28
57 55 52 48 47 44 43 41 44 43 34 35 41 40 45 45 44 42 43 45 42 40 42 44 42 40 40 39 41 40 39 38 34 37 39 37 35 35 35 32 30 32 30
68 62 54 53 54 53 52 51 47 46 51 54 52 53 54 54 55 54 55 54 52 49 48 52 50 50 49 50 49 49 49 49 47 42 39 40 43 41 41 37 38 39 35
Wind_Direction
77 78 72 56 56 61 72 84 88 99 100 93 81 60 65 95 102 95 87 34 357 343 335 334 350 358 352 349 352 349 346 354 1 5 1 357 6 15 24 18 10 4 1
48 40 24 31 37 45 44 70 106 105 105 96 94 114 119 119 112 69 8 349 339 336 348 9 8 358 351 353 355 353 4 4 8 6 1 3 25 40 37 26 19 15 15
56 51 50 57 61 58 62 77 89 87 103 115 124 128 86 35 355 346 332 336 2 19 25 17 9 1 2 1 6 8 14 16 10 10 16 34 59 50 43 35 28 31 29
70 61 60 63 72 52 54 66 81 127 136 144 164 211 284 326 338 343 1 31 45 41 33 22 27 23 22 15 24 26 32 34 33 34 45 62 64 51 52 47 39 40 40
63 63 65 66 69 66 57 45 57 117 149 162 141 117 76 59 55 68 61 59 57 49 45 36 42 42 40 39 38 46 47 47 46 52 62 69 62 56 61 54 51 47 48
59 57 60 64 75 68 61 62 69 88 102 130 107 87 85 90 83 72 56 45 40 46 51 45 44 45 31 31 36 41 47 40 44 55 66 66 62 65 64 61 58 54 51
61 62 62 67 74 77 73 72 83 87 92 94 95 93 92 87 82 78 70 62 59 54 60 58 21 28 30 31 33 29 38 50 47 54 65 64 63 62 65 69 63 56 55
62 63 65 72 76 83 85 85 82 82 78 76 80 79 83 83 74 64 63 59 56 58 53 36 38 43 41 33 31 33 46 53 54 50 62 67 65 61 64 70 69 61 55
64 63 60 63 70 74 81 79 80 76 74 74 70 60 57 52 51 59 52 68 57 52 49 46 41 40 33 38 41 46 49 48 57 57 57 65 69 65 64 67 67 68 64
62 64 65 67 65 65 69 77 81 77 81 77 66 62 57 63 69 62 52 63 62 25 21 28 34 49 35 35 52 49 49 51 54 57 55 59 69 67 65 67 68 68 68
60 54 63 67 70 71 69 69 75 80 82 84 72 70 61 61 56 43 36 33 37 38 31 15 12 39 38 37 59 56 53 52 53 55 54 56 61 65 65 63 65 70 70
62 62 63 66 66 68 69 68 74 86 91 79 72 60 55 53 43 32 36 35 27 20 23 22 43 40 36 50 58 64 56 54 58 58 60 64 64 64 64 64 63 66 69
60 56 68 71 64 67 66 68 70 79 80 77 89 65 53 39 28 35 44 32 34 33 34 45 63 61 44 44 51 64 58 61 63 60 58 63 67 66 64 65 65 64 61
65 58 58 73 68 63 62 69 71 68 68 71 72 73 61 62 58 49 46 38 52 52 52 42 54 52 44 30 36 52 46 66 67 59 61 62 60 62 67 70 72 71 72
39 68 59 74 66 64 59 62 64 65 69 69 64 62 64 59 55 56 53 55 56 51 51 49 48 41 41 35 31 34 37 58 61 40 50 63 65 61 61 60 67 70 67
14 46 62 74 74 65 62 59 56 55 58 61 65 68 63 57 57 53 48 44 41 31 32 26 20 27 28 26 19 25 29 29 25 21 43 57 66 67 61 58 55 59 61
360 47 33 43 80 57 61 59 54 51 50 49 55 62 68 64 60 56 53 42 25 18 12 10 358 359 359 353 5 11 19 13 4 15 27 44 60 66 72 59 53 56 55
323 344 337 323 355 336 32 42 40 44 37 39 39 50 55 54 59 60 62 64 58 49 42 32 10 4 353 354 358 3 354 356 350 350 6 21 33 44 56 48 56 59 47
297 298 315 307 307 322 252 280 311 336 360 7 354 14 21 22 28 35 42 44 36 36 33 36 33 34 34 30 27 23 6 354 356 345 345 354 6 15 28 39 48 61 44
303 306 295 278 277 285 266 267 277 292 298 302 346 339 346 348 346 340 351 5 15 10 9 11 9 5 4 6 7 7 360 16 6 345 341 332 333 334 343 343 335 8 15
296 310 309 295 289 279 273 271 261 259 280 292 290 320 326 329 324 319 320 325 332 353 350 347 346 342 342 346 345 346 349 355 358 354 2 340 317 306 318 320 324 308 311
276 296 304 295 284 284 277 275 269 272 271 284 280 283 298 303 309 312 311 307 315 315 324 324 324 322 329 330 334 334 330 332 337 335 337 336 340 345 330 302 299 303 303
281 291 292 282 275 273 279 283 277 270 271 274 277 283 292 299 301 299 297 298 302 301 305 306 309 309 309 314 314 315 320 318 319 318 318 320 318 320 325 329 330 328 321
278 281 281 277 271 268 267 276 276 273 268 262 274 283 295 294 295 296 301 302 299 299 299 296 297 298 300 301 306 304 311 309 308 307 307 307 312 309 309 307 306 305 314
268 272 276 272 272 265 265 273 276 275 263 266 278 275 288 288 289 287 291 297 295 295 298 296 295 293 295 296 298 297 298 299 295 296 300 300 304 299 298 298 293 299 293
264 269 269 270 270 264 264 262 273 273 277 279 280 278 284 284 287 287 285 287 293 287 286 292 291 293 292 293 294 296 294 289 291 288 292 293 290 292 290 290 287 289 295
Height
10939 10938 10936 10936 10934 10932 10932 10934 10935 10934 10933 10934 10937 10939 10940 10941 10942 10943 10943 10942 10942 10940 10936 10934 10930 10927 10924 10920 10915 10909 10905 10900 10896 10892 10889 10884 10882 10879 10878 10874 10868 10859 10851
10942 10940 10938 10937 10938 10936 10936 10937 10936 10936 10936 10937 10939 10942 10943 10943 10944 10944 10943 10942 10941 10939 10936 10934 10932 10929 10924 10919 10914 10908 10902 10899 10895 10891 10887 10883 10881 10879 10878 10876 10870 10862 10852
10946 10945 10942 10938 10938 10937 10936 10934 10934 10936 10938 10939 10941 10944 10945 10945 10946 10945 10942 10943 10943 10941 10938 10935 10933 10929 10924 10919 10914 10908 10902 10899 10895 10890 10886 10883 10881 10880 10880 10877 10874 10867 10856
10954 10951 10946 10945 10941 10939 10938 10935 10936 10936 10938 10939 10943 10946 10946 10946 10947 10945 10945 10945 10944 10943 10941 10939 10936 10931 10927 10921 10914 10908 10903 10899 10896 10891 10887 10885 10884 10882 10881 10880 10878 10871 10863
10957 10956 10952 10948 10944 10943 10939 10937 10935 10935 10937 10941 10945 10946 10948 10947 10947 10947 10948 10949 10947 10947 10945 10943 10939 10936 10931 10925 10917 10910 10907 10903 10898 10894 10891 10889 10888 10886 10884 10883 10882 10877 10871
10961 10960 10957 10955 10952 10946 10945 10941 10936 10936 10939 10944 10948 10949 10952 10949 10950 10953 10955 10954 10953 10952 10952 10950 10947 10940 10934 10928 10922 10915 10911 10907 10905 10901 10897 10895 10893 10890 10889 10887 10888 10884 10879
10972 10968 10964 10961 10959 10955 10953 10953 10949 10947 10951 10953 10951 10953 10957 10958 10958 10960 10958 10959 10955 10956 10956 10954 10951 10946 10939 10933 10928 10921 10915 10909 10908 10910 10905 10902 10899 10896 10893 10892 10892 10890 10887
10982 10980 10976 10973 10970 10968 10965 10966 10962 10960 10963 10963 10961 10962 10960 10963 10964 10967 10967 10965 10962 10960 10958 10957 10955 10950 10944 10939 10932 10926 10920 10916 10912 10915 10913 10908 10906 10902 10899 10897 10897 10896 10895
10990 10988 10986 10981 10979 10978 10977 10976 10973 10969 10970 10968 10967 10967 10970 10970 10971 10971 10971 10970 10969 10965 10961 10959 10959 10957 10952 10944 10940 10933 10927 10922 10918 10918 10921 10915 10912 10909 10906 10904 10902 10901 10901
10997 10994 10992 10992 10988 10985 10983 10983 10981 10977 10975 10974 10974 10974 10975 10975 10973 10975 10973 10973 10972 10971 10967 10965 10962 10960 10959 10954 10948 10941 10936 10930 10925 10924 10927 10922 10918 10916 10913 10910 10909 10908 10907
11005 11002 11001 10999 10996 10993 10990 10988 10985 10985 10983 10981 10980 10980 10979 10979 10978 10977 10975 10974 10974 10973 10970 10969 10968 10968 10966 10963 10955 10952 10946 10942 10934 10931 10932 10930 10925 10922 10920 10918 10916 10914 10914
11014 11012 11008 11007 11005 11001 10996 10994 10993 10993 10992 10989 10988 10985 10983 10982 10980 10978 10979 10976 10975 10977 10976 10973 10972 10974 10973 10970 10964 10956 10957 10953 10945 10942 10941 10937 10933 10929 10927 10925 10923 10921 10921
11020 11021 11017 11015 11013 11009 11004 11004 11001 11001 10999 10996 10994 10991 10988 10985 10983 10983 10983 10982 10983 10982 10982 10978 10976 10978 10978 10975 10971 10966 10968 10960 10953 10955 10954 10948 10942 10938 10934 10932 10930 10928 10927
11024 11026 11024 11021 11019 11018 11014 11012 11010 11008 11005 11001 10998 10995 10992 10990 10989 10988 10986 10988 10989 10986 10984 10985 10983 10984 10983 10981 10978 10978 10978 10966 10961 10966 10965 10959 10953 10948 10945 10942 10938 10936 10935
11028 11027 11028 11027 11026 11024 11021 11020 11018 11016 11013 11009 11005 11001 10999 10998 10996 10994 10994 10995 10995 10994 10994 10992 10991 10991 10990 10988 10986 10985 10979 10972 10970 10978 10973 10968 10963 10959 10958 10954 10949 10945 10945
11029 11028 11029 11029 11029 11027 11025 11023 11023 11022 11020 11016 11013 11009 11008 11006 11004 11002 11002 11000 11001 11001 10999 10998 10997 10996 10994 10993 10990 10986 10981 10980 10983 10983 10979 10975 10971 10967 10967 10963 10959 10956 10954
11030 11028 11028 11030 11030 11029 11027 11026 11026 11025 11024 11022 11021 11018 11014 11012 11009 11007 11006 11006 11005 11003 11002 11002 11001 11000 10997 10996 10993 10988 10985 10986 10987 10985 10984 10980 10978 10975 10973 10970 10967 10963 10962
11028 11028 11029 11030 11029 11028 11028 11027 11028 11027 11026 11026 11026 11022 11020 11019 11017 11015 11013 11011 11009 11008 11006 11005 11002 11000 10999 10995 10993 10991 10991 10991 10989 10987 10985 10983 10981 10981 10978 10975 10972 10968 10967
11025 11026 11027 11027 11027 11027 11026 11027 11029 11028 11028 11025 11025 11024 11022 11020 11019 11018 11016 11014 11013 11012 11011 11008 11006 11003 11001 11000 10998 10996 10994 10992 10990 10988 10986 10985 10984 10984 10981 10979 10976 10973 10970
11022 11023 11023 11023 11025 11026 11027 11027 11027 11026 11026 11024 11022 11024 11022 11021 11020 11018 11017 11016 11015 11013 11011 11011 11009 11007 11004 11001 10998 10997 10995 10994 10991 10988 10986 10985 10984 10984 10983 10981 10978 10975 10973
11018 11018 11019 11020 11022 11022 11022 11024 11023 11023 11022 11020 11019 11020 11019 11019 11019 11017 11015 11014 11012 11012 11011 11010 11007 11004 11002 11001 11000 10997 10994 10992 10991 10988 10987 10985 10984 10982 10981 10979 10977 10976 10973
11010 11014 11017 11018 11018 11018 11016 11017 11018 11017 11017 11016 11016 11016 11015 11014 11016 11015 11014 11012 11011 11009 11008 11006 11005 11002 11002 11001 10999 10996 10993 10990 10989 10988 10985 10984 10982 10981 10980 10977 10975 10973 10973
11002 11005 11010 11011 11011 11012 11011 11010 11010 11010 11011 11011 11009 11011 11011 11009 11010 11010 11009 11008 11007 11006 11004 11002 11000 10999 10998 10997 10996 10993 10991 10988 10987 10985 10983 10983 10981 10978 10976 10974 10972 10972 10971
10993 10998 11000 11002 11002 11003 11004 11004 11004 11004 11004 11004 11003 11003 11004 11003 11002 11002 11001 11001 11000 11000 10999 10998 10996 10993 10992 10992 10990 10989 10987 10985 10982 10980 10979 10977 10976 10974 10972 10970 10969 10968 10966
10984 10987 10989 10991 10991 10993 10996 10996 10996 10997 10996 10996 10995 10994 10994 10995 10994 10992 10993 10993 10993 10993 10992 10989 10988 10985 10984 10984 10984 10982 10980 10978 10975 10971 10972 10970 10970 10969 10966 10964 10963 10962 10960
10972 10974 10977 10978 10979 10982 10983 10984 10985 10987 10987 10987 10988 10986 10984 10984 10983 10982 10982 10983 10983 10983 10980 10978 10976 10976 10975 10973 10973 10973 10970 10966 10965 10963 10960 10959 10959 10958 10957 10958 10956 10956 10953